Regional Weather Roundup
Issued by NWS

Home | Current Version | Previous Version | Graphics & Text | Print | Product List | Glossary On
Versions: 1 2 3 4 5 6 7 8 9 10 11 12 13 14 15 16 17 18 19 20 21 22 23 24 25 26 27 28 29 30 31 32 33 34 35 36 37 38 39 40 41 42 43 44 45 46 47 48 49 50
991
ASUS43 KOAX 240802
RWRNE

WEATHER ROUNDUP FOR NEBRASKA
NATIONAL WEATHER SERVICE OMAHA NE
300 AM CDT TUE APR 24 2018

NOTES: SATELLITE DATA IS BEING USED TO AUGMENT CLOUD COVER ABOVE
       12000 FEET.
       "FAIR" INDICATES FEW OR NO CLOUDS BELOW 12,000 FEET WITH NO
       SIGNIFICANT WEATHER AND/OR OBSTRUCTIONS TO VISIBILITY.


NEZ001>004-019>022-054>056-240900-
NEBRASKA PANHANDLE

CITY           SKY/WX    TMP DP  RH WIND       PRES   REMARKS
SCOTTSBLUFF    CLOUDY    38  34  85 NW24G31   30.31S WCI  27
ALLIANCE       CLOUDY    37  34  89 NW23G30   30.26S WCI  26
CHADRON        CLOUDY    38  34  85 NW22G30   30.31S WCI  27
GORDON         CLOUDY    39  35  88 NW16G25   30.26R WCI  30
KIMBALL        CLOUDY    35  32  89 N21G31    30.30R WCI  24
SIDNEY         CLOUDY    37  34  89 N22G28    30.28R WCI  26
$$

NEZ057>060-069>072-079>082-240900-
SOUTHWEST NEBRASKA

CITY           SKY/WX    TMP DP  RH WIND       PRES   REMARKS
NORTH PLATTE   CLOUDY    53  46  77 N7        30.17R
IMPERIAL       CLOUDY    45  43  93 NW23G35   30.20R
LEXINGTON      CLOUDY    47  41  80 CALM      30.13S
MCCOOK         CLOUDY    50  42  74 NW5       30.14F
OGALLALA       LGT RAIN  44  41  89 NW15G31   30.23R
$$

NEZ005>010-023>029-035>040-094-240900-
NORTH CENTRAL NEBRASKA

CITY           SKY/WX    TMP DP  RH WIND       PRES   REMARKS
VALENTINE      CLOUDY    44  41  89 W21G31    30.18S
AINSWORTH      CLOUDY    49  48  96 NW14      30.15F
BROKEN BOW     MOCLDY    53  41  63 CALM      30.12F
O`NEILL        MOCLDY    56  38  52 SE8       30.12F
ORD            MOCLDY    44  39  82 CALM      30.10F
THEDFORD       CLOUDY    49  46  91 NW15G21   30.19R
$$

NEZ041-046>049-061>064-073>077-083>087-240900-
SOUTH CENTRAL NEBRASKA

CITY           SKY/WX    TMP DP  RH WIND       PRES   REMARKS
GRAND ISLAND   CLOUDY    49  41  74 CALM      30.13F
AURORA         CLOUDY    54  35  48 CALM      30.13F
HASTINGS       CLOUDY    46  38  73 CALM      30.14F
HEBRON         CLEAR     43  35  73 CALM      30.13R
HOLDREGE       MOCLDY    46  39  78 CALM      30.12F
KEARNEY        CLOUDY    47  39  74 CALM      30.13F
YORK             N/A     50  36  57 CALM      30.13S
$$

NEZ011>018-030>034-042>045-240900-
NORTHEAST NEBRASKA

CITY           SKY/WX    TMP DP  RH WIND       PRES   REMARKS
NORFOLK        CLOUDY    52  40  63 SE7       30.13F
ALBION         CLOUDY    54  37  51 CALM      30.13F
BLAIR          MOCLDY    51  38  59 NE7       30.13S
COLUMBUS       CLOUDY    50  37  61 E6        30.14F
FREMONT        MOCLDY    47  34  61 CALM      30.14S
TEKAMAH        CLOUDY    41  36  82 NW7       30.14S
WAYNE          CLOUDY    47  45  94 CALM      30.15S
$$

NEZ050>053-065>068-078-088>093-240900-
SOUTHEAST NEBRASKA

CITY           SKY/WX    TMP DP  RH WIND       PRES   REMARKS
LINCOLN        CLEAR     44  34  67 N5        30.14S
OMAHA EPPLEY   MOCLDY    47  36  65 NW7       30.12F
BEATRICE       CLEAR     42  34  72 CALM      30.12S
FALLS CITY     CLEAR     47  31  53 NW6       30.10R
NEBRASKA CITY  CLEAR     50  32  49 N6        30.12S
PLATTSMOUTH    CLEAR     51  32  48 NE3       30.13S
$$

NEZ044-045-051>053-067-240900-
OMAHA AREA

CITY           SKY/WX    TMP DP  RH WIND       PRES   REMARKS
OMAHA EPPLEY   MOCLDY    47  36  65 NW7       30.12F
BLAIR          MOCLDY    51  38  59 NE7       30.13S
FREMONT        MOCLDY    47  34  61 CALM      30.14S
MILLARD        CLEAR     50  36  59 NW3       30.13S
PLATTSMOUTH    CLEAR     51  32  48 NE3       30.13S
WAHOO          FAIR      50  30  45 N5        30.13F
$$




USA.gov is the U.S. government's official web portal to all federal, state and local government web resources and services.